Simultaneous Nadir Overpasses (SNOs) Predictions

Prediction of SNOs between GOES-16 and AQUA Satellite Orbit:

Table of predicted SNOs for the next 14.0 days since TLE Epoch: 3/29/2019
Index Date Time (GOES-16) GOES-16 Lat,Lon AQUA Lat,Lon Distance(km) Time Diff (sec)
1 03/31/2019 06:38:49 -0.00, -75.19 0.05, -75.38 22.34 80
2 04/02/2019 06:23:59 -0.00, -75.19 -0.60, -72.43 314.08 80
3 04/02/2019 18:45:23 0.01, -75.21 -0.49, -77.63 274.25 80
4 04/04/2019 18:35:52 0.00, -75.22 0.11, -74.67 63.03 80
5 04/06/2019 18:23:42 0.00, -75.24 0.77, -71.72 400.77 80
6 04/07/2019 06:44:57 -0.00, -75.23 0.36, -76.87 186.89 80
7 04/09/2019 06:30:07 -0.00, -75.25 -0.31, -73.93 151.12 80
8 04/09/2019 18:51:30 0.00, -75.27 -0.83, -79.11 437.18 80
9 04/11/2019 06:17:57 -0.00, -75.27 -0.91, -70.97 489.14 80
10 04/11/2019 18:39:20 0.00, -75.29 -0.17, -76.16 99.07 80




NCC Satellite Simultaneous Nadir Overpasses (SNOs) Prediction Service
